| time (UTC) | temp F | wind direction | speed MPH | gust MPH | rain 1hr in | rain 24hr in | rain mn in | humidity % | barometer mb |
| 20260901115005 | 67 | 262 | 14.0 | 23.0 | 0.00 | 0.06 | 0.01 | 68 | 1015.2 |
| 20260901114954 | 67 | 269 | 15.0 | 22.0 | 0.00 | 0.06 | 0.00 | 66 | 1017.0 |
| 20260901114454 | 67 | 311 | 14.0 | 20.0 | 0.00 | 0.06 | 0.00 | 68 | 1017.0 |
| 20260901114005 | 67 | 247 | 17.0 | 22.0 | 0.00 | 0.06 | 0.01 | 67 | 1015.2 |
| 20260901113505 | 68 | 252 | 16.0 | 22.0 | 0.00 | 0.07 | 0.01 | 67 | 1015.2 |
| 20260901113453 | 68 | 296 | 16.0 | 22.0 | 0.00 | 0.07 | 0.00 | 66 | 1017.1 |
| 20260901113005 | 68 | 262 | 14.0 | 20.0 | 0.00 | 0.07 | 0.01 | 71 | 1015.0 |
| 20260901112954 | 68 | 297 | 15.0 | 21.0 | 0.00 | 0.07 | 0.00 | 69 | 1016.8 |
| 20260901112505 | 66 | 272 | 16.0 | 19.0 | 0.00 | 0.07 | 0.01 | 69 | 1015.1 |
| 20260901112005 | 66 | 284 | 18.0 | 21.0 | 0.00 | 0.07 | 0.01 | 67 | 1015.2 |
| 20260901111953 | 66 | 304 | 19.0 | 22.0 | 0.00 | 0.07 | 0.00 | 68 | 1017.1 |
| 20260901111506 | 67 | 281 | 17.0 | 23.0 | 0.00 | 0.07 | 0.01 | 68 | 1015.3 |
| 20260901111453 | 67 | 257 | 18.0 | 24.0 | 0.00 | 0.07 | 0.00 | 67 | 1016.9 |
| 20260901111006 | 66 | 289 | 17.0 | 23.0 | 0.00 | 0.07 | 0.01 | 70 | 1015.1 |
| 20260901110954 | 66 | 251 | 16.0 | 24.0 | 0.00 | 0.07 | 0.00 | 67 | 1016.8 |
| 20260901110506 | 65 | 288 | 15.0 | 19.0 | 0.00 | 0.07 | 0.01 | 71 | 1015.0 |
| 20260901110454 | 65 | 290 | 15.0 | 20.0 | 0.00 | 0.07 | 0.00 | 71 | 1016.8 |
| 20260901110005 | 65 | 258 | 15.0 | 19.0 | 0.00 | 0.07 | 0.01 | 71 | 1015.1 |
| 20260901110000 | 65 | 291 | 15.0 | 20.0 | 0.00 | 0.07 | 0.00 | 70 | 1016.9 |
| 20260901105505 | 65 | 260 | 14.0 | 18.0 | 0.00 | 0.07 | 0.01 | 70 | 1015.1 |
| 20260901105453 | 65 | 272 | 14.0 | 18.0 | 0.00 | 0.07 | 0.00 | 69 | 1016.7 |
| 20260901105005 | 66 | 275 | 12.0 | 18.0 | 0.00 | 0.07 | 0.01 | 71 | 1015.1 |
| 20260901104957 | 65 | 281 | 12.0 | 18.0 | 0.00 | 0.07 | 0.00 | 70 | 1016.8 |
| 20260901104505 | 65 | 290 | 12.0 | 18.0 | 0.00 | 0.07 | 0.01 | 70 | 1015.1 |
| 20260901104454 | 65 | 272 | 13.0 | 19.0 | 0.00 | 0.07 | 0.00 | 71 | 1016.8 |
| 20260901104005 | 65 | 281 | 14.0 | 19.0 | 0.00 | 0.07 | 0.01 | 70 | 1015.0 |
| 20260901103953 | 65 | 267 | 15.0 | 19.0 | 0.00 | 0.07 | 0.00 | 70 | 1016.8 |
| 20260901103005 | 66 | 314 | 16.0 | 20.0 | 0.00 | 0.07 | 0.01 | 68 | 1015.0 |
| 20260901102953 | 65 | 290 | 16.0 | 19.0 | 0.00 | 0.07 | 0.00 | 68 | 1016.6 |
| 20260901102454 | 66 | 295 | 18.0 | 21.0 | 0.00 | 0.07 | 0.00 | 68 | 1016.8 |
| 20260901102005 | 66 | 303 | 18.0 | 21.0 | 0.00 | 0.07 | 0.01 | 67 | 1014.8 |
| 20260901101954 | 66 | 278 | 19.0 | 21.0 | 0.00 | 0.07 | 0.00 | 67 | 1016.4 |
| 20260901101505 | 66 | 284 | 17.0 | 21.0 | 0.01 | 0.07 | 0.01 | 68 | 1014.8 |
| 20260901101453 | 66 | 288 | 18.0 | 21.0 | 0.00 | 0.07 | 0.00 | 68 | 1016.6 |
| 20260901100954 | 66 | 280 | 19.0 | 21.0 | 0.00 | 0.07 | 0.00 | 67 | 1016.7 |
| 20260901100505 | 66 | 257 | 19.0 | 21.0 | 0.01 | 0.07 | 0.01 | 71 | 1014.6 |
| 20260901100454 | 66 | 249 | 19.0 | 22.0 | 0.00 | 0.07 | 0.00 | 68 | 1016.3 |
| 20260901100005 | 66 | 279 | 17.0 | 21.0 | 0.01 | 0.07 | 0.01 | 71 | 1014.8 |
| 20260901100000 | 66 | 250 | 17.0 | 22.0 | 0.00 | 0.07 | 0.00 | 70 | 1016.4 |
| 20260901095506 | 65 | 274 | 16.0 | 22.0 | 0.01 | 0.07 | 0.01 | 71 | 1014.7 |
| 20260901095454 | 65 | 276 | 17.0 | 21.0 | 0.00 | 0.07 | 0.00 | 71 | 1016.5 |
| 20260901095005 | 65 | 297 | 16.0 | 22.0 | 0.01 | 0.07 | 0.01 | 71 | 1014.7 |
| 20260901094953 | 65 | 294 | 17.0 | 21.0 | 0.00 | 0.07 | 0.00 | 70 | 1016.5 |
| 20260901094505 | 65 | 291 | 16.0 | 20.0 | 0.01 | 0.07 | 0.01 | 72 | 1014.8 |
| 20260901094454 | 65 | 299 | 17.0 | 21.0 | 0.00 | 0.07 | 0.00 | 72 | 1016.3 |
| 20260901094005 | 65 | 269 | 16.0 | 21.0 | 0.01 | 0.07 | 0.01 | 73 | 1014.7 |
| 20260901093954 | 65 | 297 | 16.0 | 22.0 | 0.00 | 0.07 | 0.00 | 73 | 1016.6 |
| 20260901093505 | 66 | 278 | 17.0 | 21.0 | 0.01 | 0.07 | 0.01 | 73 | 1014.7 |
| 20260901093005 | 66 | 299 | 17.0 | 22.0 | 0.01 | 0.07 | 0.01 | 72 | 1014.6 |
| 20260901092954 | 65 | 269 | 18.0 | 22.0 | 0.00 | 0.07 | 0.00 | 71 | 1016.5 |
| 20260901092505 | 66 | 305 | 17.0 | 22.0 | 0.01 | 0.07 | 0.01 | 72 | 1014.6 |
| 20260901092005 | 66 | 298 | 16.0 | 22.0 | 0.01 | 0.07 | 0.01 | 72 | 1014.5 |
| 20260901091957 | 65 | 301 | 15.0 | 22.0 | 0.00 | 0.07 | 0.00 | 72 | 1016.3 |
| 20260901091454 | 66 | 293 | 15.0 | 17.0 | 0.00 | 0.07 | 0.00 | 72 | 1016.5 |
| 20260901091006 | 66 | 285 | 13.0 | 19.0 | 0.00 | 0.06 | 0.00 | 72 | 1014.6 |
| 20260901090954 | 66 | 291 | 14.0 | 17.0 | 0.00 | 0.07 | 0.00 | 70 | 1016.1 |
| 20260901090506 | 66 | 280 | 13.0 | 19.0 | 0.00 | 0.06 | 0.00 | 75 | 1014.4 |
| 20260901090454 | 66 | 298 | 13.0 | 17.0 | 0.00 | 0.07 | 0.00 | 72 | 1016.0 |
| 20260901090005 | 66 | 283 | 13.0 | 17.0 | 0.00 | 0.06 | 0.00 | 75 | 1014.6 |
| 20260901085959 | 66 | 310 | 13.0 | 17.0 | 0.00 | 0.07 | 0.00 | 75 | 1016.3 |
| 20260901085506 | 65 | 289 | 14.0 | 17.0 | 0.00 | 0.06 | 0.00 | 74 | 1014.5 |
| 20260901085453 | 65 | 291 | 14.0 | 16.0 | 0.00 | 0.07 | 0.00 | 74 | 1016.3 |
| 20260901084954 | 65 | 302 | 15.0 | 17.0 | 0.00 | 0.07 | 0.00 | 74 | 1016.1 |
| 20260901084454 | 65 | 323 | 15.0 | 17.0 | 0.00 | 0.07 | 0.00 | 73 | 1016.2 |
| 20260901084006 | 65 | 263 | 14.0 | 23.0 | 0.00 | 0.06 | 0.00 | 73 | 1014.5 |
| 20260901083954 | 65 | 313 | 15.0 | 22.0 | 0.00 | 0.07 | 0.00 | 72 | 1015.9 |
| 20260901083505 | 65 | 261 | 14.0 | 23.0 | 0.00 | 0.06 | 0.00 | 75 | 1014.5 |
| 20260901083454 | 65 | 299 | 15.0 | 24.0 | 0.00 | 0.07 | 0.00 | 75 | 1016.1 |
| 20260901083005 | 65 | 272 | 17.0 | 23.0 | 0.00 | 0.06 | 0.00 | 74 | 1014.5 |
| 20260901082954 | 65 | 272 | 17.0 | 24.0 | 0.00 | 0.07 | 0.00 | 74 | 1016.2 |
| 20260901082505 | 65 | 262 | 17.0 | 23.0 | 0.00 | 0.06 | 0.00 | 74 | 1014.4 |
| 20260901082454 | 65 | 275 | 17.0 | 24.0 | 0.00 | 0.07 | 0.00 | 73 | 1016.3 |
| 20260901082005 | 65 | 270 | 12.0 | 17.0 | 0.00 | 0.06 | 0.00 | 76 | 1014.3 |
| 20260901081954 | 65 | 283 | 13.0 | 17.0 | 0.00 | 0.07 | 0.00 | 75 | 1016.0 |
| 20260901081506 | 64 | 291 | 12.0 | 17.0 | 0.00 | 0.06 | 0.00 | 77 | 1014.2 |
| 20260901081453 | 64 | 284 | 13.0 | 16.0 | 0.00 | 0.07 | 0.00 | 77 | 1016.1 |
| 20260901081005 | 64 | 308 | 14.0 | 17.0 | 0.00 | 0.06 | 0.00 | 76 | 1014.3 |
| 20260901080505 | 64 | 299 | 15.0 | 17.0 | 0.00 | 0.06 | 0.00 | 77 | 1014.3 |
| 20260901080454 | 64 | 314 | 15.0 | 17.0 | 0.00 | 0.07 | 0.00 | 77 | 1016.0 |
| 20260901080005 | 64 | 276 | 15.0 | 18.0 | 0.00 | 0.06 | 0.00 | 77 | 1014.4 |
| 20260901080000 | 64 | 302 | 15.0 | 18.0 | 0.00 | 0.07 | 0.00 | 75 | 1015.9 |
| 20260901075505 | 64 | 274 | 13.0 | 18.0 | 0.00 | 0.06 | 0.00 | 79 | 1014.3 |
| 20260901074953 | 63 | 305 | 11.0 | 15.0 | 0.00 | 0.07 | 0.00 | 79 | 1016.0 |
| 20260901074506 | 63 | 304 | 11.0 | 14.0 | 0.00 | 0.06 | 0.00 | 80 | 1014.3 |
| 20260901074454 | 63 | 293 | 12.0 | 15.0 | 0.00 | 0.07 | 0.00 | 79 | 1016.1 |
| 20260901074006 | 63 | 294 | 11.0 | 14.0 | 0.00 | 0.06 | 0.00 | 81 | 1014.4 |
| 20260901073954 | 63 | 295 | 11.0 | 15.0 | 0.00 | 0.07 | 0.00 | 80 | 1016.0 |
| 20260901073505 | 63 | 257 | 11.0 | 14.0 | 0.00 | 0.06 | 0.00 | 81 | 1014.3 |
| 20260901073454 | 63 | 276 | 12.0 | 17.0 | 0.00 | 0.07 | 0.00 | 81 | 1016.1 |
| 20260901073005 | 63 | 243 | 12.0 | 15.0 | 0.00 | 0.06 | 0.00 | 81 | 1014.3 |
| 20260901072954 | 63 | 287 | 12.0 | 17.0 | 0.00 | 0.07 | 0.00 | 80 | 1016.0 |
| 20260901072505 | 63 | 265 | 11.0 | 15.0 | 0.00 | 0.06 | 0.00 | 81 | 1014.3 |
| 20260901072454 | 63 | 294 | 11.0 | 15.0 | 0.00 | 0.07 | 0.00 | 81 | 1016.1 |
| 20260901072005 | 63 | 266 | 11.0 | 15.0 | 0.00 | 0.06 | 0.00 | 81 | 1014.2 |
| 20260901071954 | 63 | 280 | 12.0 | 15.0 | 0.00 | 0.07 | 0.00 | 82 | 1016.1 |
| 20260901071505 | 63 | 265 | 12.0 | 15.0 | 0.00 | 0.06 | 0.00 | 81 | 1014.2 |
| 20260901071005 | 63 | 271 | 10.0 | 15.0 | 0.00 | 0.06 | 0.00 | 81 | 1014.1 |
| 20260901070954 | 63 | 300 | 11.0 | 14.0 | 0.00 | 0.07 | 0.00 | 81 | 1015.8 |
| 20260901070454 | 63 | 301 | 11.0 | 18.0 | 0.00 | 0.07 | 0.00 | 82 | 1015.8 |
| 20260901070005 | 63 | 254 | 10.0 | 19.0 | 0.00 | 0.06 | 0.00 | 83 | 1014.1 |
| 20260901070000 | 63 | 290 | 10.0 | 18.0 | 0.00 | 0.07 | 0.00 | 82 | 1016.0 |
| 20260901065505 | 62 | 250 | 9.0 | 11.0 | 0.00 | 0.06 | 0.00 | 84 | 1014.1 |
| 20260901065453 | 62 | 288 | 9.0 | 11.0 | 0.00 | 0.07 | 0.00 | 84 | 1015.8 |
| 20260901065005 | 62 | 276 | 11.0 | 16.0 | 0.00 | 0.06 | 0.00 | 84 | 1013.9 |
| 20260901064953 | 62 | 286 | 11.0 | 17.0 | 0.00 | 0.07 | 0.00 | 84 | 1015.7 |
| 20260901064505 | 62 | 298 | 12.0 | 17.0 | 0.00 | 0.06 | 0.00 | 84 | 1013.9 |
| 20260901064454 | 62 | 292 | 13.0 | 17.0 | 0.00 | 0.07 | 0.00 | 84 | 1015.6 |
| 20260901064006 | 62 | 288 | 12.0 | 17.0 | 0.00 | 0.06 | 0.00 | 84 | 1013.8 |
| 20260901063953 | 61 | 321 | 12.0 | 17.0 | 0.00 | 0.07 | 0.00 | 84 | 1015.5 |
| 20260901063505 | 62 | 295 | 11.0 | 15.0 | 0.00 | 0.06 | 0.00 | 84 | 1013.9 |
| 20260901063005 | 61 | 302 | 12.0 | 17.0 | 0.00 | 0.06 | 0.00 | 85 | 1013.8 |
| 20260901062505 | 61 | 302 | 13.0 | 17.0 | 0.00 | 0.06 | 0.00 | 85 | 1013.7 |
| 20260901062005 | 61 | 304 | 12.0 | 17.0 | 0.00 | 0.06 | 0.00 | 85 | 1013.8 |
| 20260901061505 | 61 | 311 | 12.0 | 15.0 | 0.00 | 0.06 | 0.00 | 86 | 1013.8 |
| 20260901061453 | 61 | 294 | 12.0 | 15.0 | 0.00 | 0.07 | 0.00 | 86 | 1015.6 |
| 20260901061005 | 61 | 285 | 12.0 | 15.0 | 0.00 | 0.06 | 0.00 | 87 | 1013.5 |
| 20260901060954 | 61 | 290 | 12.0 | 15.0 | 0.00 | 0.07 | 0.00 | 87 | 1015.6 |
| 20260901060505 | 60 | 288 | 11.0 | 12.0 | 0.00 | 0.06 | 0.00 | 88 | 1013.7 |
| 20260901060454 | 60 | 303 | 10.0 | 15.0 | 0.00 | 0.07 | 0.00 | 88 | 1015.4 |
| 20260901060005 | 60 | 283 | 10.0 | 12.0 | 0.00 | 0.06 | 0.00 | 88 | 1013.7 |
| 20260901060000 | 60 | 286 | 9.0 | 13.0 | 0.00 | 0.07 | 0.00 | 88 | 1015.4 |
| 20260901055505 | 60 | 264 | 8.0 | 10.0 | 0.00 | 0.06 | 0.00 | 88 | 1013.6 |
| 20260901055453 | 60 | 252 | 8.0 | 12.0 | 0.00 | 0.07 | 0.00 | 88 | 1015.5 |
| 20260901055005 | 60 | 263 | 8.0 | 12.0 | 0.00 | 0.06 | 0.00 | 88 | 1013.6 |
| 20260901054954 | 60 | 249 | 8.0 | 12.0 | 0.00 | 0.07 | 0.00 | 88 | 1015.6 |
| 20260901054454 | 60 | 268 | 9.0 | 12.0 | 0.00 | 0.07 | 0.00 | 89 | 1015.3 |
| 20260901054005 | 60 | 239 | 9.0 | 11.0 | 0.00 | 0.06 | 0.00 | 89 | 1013.4 |
| 20260901053954 | 60 | 298 | 9.0 | 11.0 | 0.00 | 0.07 | 0.00 | 90 | 1015.2 |
| 20260901053505 | 60 | 242 | 8.0 | 11.0 | 0.00 | 0.06 | 0.00 | 89 | 1013.4 |
| 20260901052954 | 60 | 275 | 8.0 | 11.0 | 0.00 | 0.07 | 0.00 | 91 | 1015.2 |
| 20260901051954 | 60 | 279 | 8.0 | 10.0 | 0.00 | 0.07 | 0.00 | 92 | 1015.2 |
| 20260901051454 | 59 | 253 | 8.0 | 10.0 | 0.00 | 0.07 | 0.00 | 93 | 1015.1 |
| 20260901051005 | 59 | 260 | 7.0 | 9.0 | 0.00 | 0.06 | 0.00 | 91 | 1013.2 |
| 20260901050954 | 59 | 270 | 7.0 | 9.0 | 0.00 | 0.07 | 0.00 | 93 | 1015.0 |
| 20260901050504 | 59 | 257 | 6.0 | 8.0 | 0.00 | 0.06 | 0.00 | 91 | 1013.1 |
| 20260901050453 | 59 | 289 | 6.0 | 8.0 | 0.00 | 0.07 | 0.00 | 93 | 1014.9 |
| 20260901050005 | 59 | 264 | 6.0 | 7.0 | 0.00 | 0.06 | 0.00 | 92 | 1013.0 |
| 20260901050000 | 59 | 274 | 5.0 | 7.0 | 0.00 | 0.07 | 0.00 | 93 | 1015.0 |
| 20260901045505 | 58 | 261 | 6.0 | 7.0 | 0.00 | 0.06 | 0.00 | 92 | 1012.9 |
| 20260901045454 | 58 | 256 | 6.0 | 7.0 | 0.00 | 0.07 | 0.00 | 93 | 1014.8 |
| 20260901045005 | 58 | 274 | 6.0 | 7.0 | 0.00 | 0.06 | 0.00 | 92 | 1012.7 |
| 20260901044953 | 58 | 251 | 6.0 | 7.0 | 0.00 | 0.07 | 0.00 | 93 | 1015.1 |
| 20260901044506 | 58 | 283 | 6.0 | 7.0 | 0.00 | 0.06 | 0.00 | 92 | 1012.9 |
| 20260901044454 | 58 | 255 | 6.0 | 7.0 | 0.00 | 0.07 | 0.00 | 93 | 1015.0 |
| 20260901044005 | 58 | 282 | 6.0 | 8.0 | 0.00 | 0.06 | 0.00 | 92 | 1012.9 |
| 20260901043954 | 58 | 258 | 6.0 | 8.0 | 0.00 | 0.07 | 0.00 | 94 | 1014.6 |
| 20260901043505 | 58 | 278 | 7.0 | 8.0 | 0.00 | 0.06 | 0.00 | 92 | 1012.9 |
| 20260901043454 | 58 | 271 | 7.0 | 8.0 | 0.00 | 0.07 | 0.00 | 94 | 1014.7 |
| 20260901043005 | 58 | 252 | 8.0 | 8.0 | 0.00 | 0.06 | 0.00 | 92 | 1012.7 |
| 20260901042953 | 58 | 270 | 8.0 | 9.0 | 0.00 | 0.07 | 0.00 | 94 | 1014.8 |
| 20260901042505 | 58 | 263 | 7.0 | 8.0 | 0.00 | 0.06 | 0.00 | 92 | 1012.5 |
| 20260901042005 | 58 | 285 | 4.0 | 8.0 | 0.00 | 0.06 | 0.00 | 92 | 1012.6 |
| 20260901041954 | 58 | 270 | 4.0 | 9.0 | 0.00 | 0.07 | 0.00 | 93 | 1014.5 |
| 20260901041505 | 58 | 243 | 2.0 | 5.0 | 0.00 | 0.06 | 0.00 | 91 | 1012.6 |
| 20260901041454 | 58 | 241 | 2.0 | 3.0 | 0.00 | 0.07 | 0.00 | 93 | 1014.5 |
| 20260901041005 | 58 | 250 | 1.0 | 3.0 | 0.00 | 0.06 | 0.00 | 91 | 1012.5 |
| 20260901040954 | 58 | 225 | 2.0 | 3.0 | 0.00 | 0.07 | 0.00 | 92 | 1014.4 |
| 20260901040505 | 58 | 248 | 1.0 | 2.0 | 0.00 | 0.06 | 0.00 | 91 | 1012.5 |
| 20260901040005 | 58 | 240 | 2.0 | 4.0 | 0.00 | 0.06 | 0.00 | 91 | 1012.3 |
| 20260901040000 | 58 | 254 | 2.0 | 4.0 | 0.00 | 0.07 | 0.00 | 92 | 1014.3 |
| 20260901035505 | 59 | 246 | 3.0 | 4.0 | 0.00 | 0.06 | 0.00 | 91 | 1012.2 |
| 20260901035454 | 59 | 290 | 3.0 | 4.0 | 0.00 | 0.07 | 0.00 | 92 | 1014.2 |
| 20260901035005 | 59 | 240 | 3.0 | 4.0 | 0.00 | 0.06 | 0.00 | 91 | 1012.4 |
| 20260901034954 | 59 | 278 | 3.0 | 4.0 | 0.00 | 0.07 | 0.00 | 92 | 1014.2 |
| 20260901034505 | 59 | 231 | 3.0 | 4.0 | 0.00 | 0.06 | 0.00 | 90 | 1012.3 |
| 20260901034453 | 59 | 264 | 4.0 | 7.0 | 0.00 | 0.07 | 0.00 | 92 | 1014.2 |
| 20260901034005 | 59 | 243 | 5.0 | 8.0 | 0.00 | 0.06 | 0.00 | 90 | 1012.2 |
| 20260901033954 | 59 | 258 | 5.0 | 8.0 | 0.00 | 0.07 | 0.00 | 91 | 1014.2 |
| 20260901033505 | 59 | 251 | 6.0 | 8.0 | 0.00 | 0.06 | 0.00 | 90 | 1012.2 |
| 20260901033454 | 59 | 253 | 7.0 | 8.0 | 0.00 | 0.07 | 0.00 | 92 | 1014.2 |
| 20260901033005 | 59 | 262 | 6.0 | 8.0 | 0.00 | 0.06 | 0.00 | 91 | 1012.2 |
| 20260901032954 | 59 | 248 | 6.0 | 8.0 | 0.00 | 0.07 | 0.00 | 93 | 1014.0 |
| 20260901032505 | 59 | 261 | 4.0 | 6.0 | 0.00 | 0.06 | 0.00 | 91 | 1012.1 |
| 20260901032006 | 59 | 235 | 3.0 | 4.0 | 0.00 | 0.06 | 0.00 | 91 | 1012.2 |
| 20260901031505 | 59 | 236 | 3.0 | 4.0 | 0.00 | 0.06 | 0.00 | 91 | 1012.0 |
| 20260901031005 | 59 | 232 | 3.0 | 4.0 | 0.00 | 0.06 | 0.00 | 91 | 1012.0 |
| 20260901030954 | 59 | 224 | 3.0 | 4.0 | 0.00 | 0.07 | 0.00 | 92 | 1013.9 |
| 20260901030505 | 59 | 228 | 3.0 | 4.0 | 0.00 | 0.06 | 0.00 | 91 | 1012.0 |
| 20260901030453 | 59 | 227 | 3.0 | 4.0 | 0.00 | 0.07 | 0.00 | 93 | 1014.0 |
| 20260901030005 | 59 | 235 | 3.0 | 4.0 | 0.00 | 0.06 | 0.00 | 91 | 1012.0 |
| 20260901025959 | 59 | 233 | 3.0 | 4.0 | 0.00 | 0.07 | 0.00 | 92 | 1014.0 |
| 20260901025505 | 59 | 247 | 4.0 | 5.0 | 0.00 | 0.06 | 0.00 | 91 | 1012.1 |
| 20260901025454 | 59 | 248 | 4.0 | 5.0 | 0.00 | 0.07 | 0.00 | 92 | 1014.1 |
| 20260901024954 | 59 | 256 | 5.0 | 6.0 | 0.00 | 0.07 | 0.00 | 92 | 1014.0 |
| 20260901024505 | 59 | 272 | 5.0 | 6.0 | 0.00 | 0.06 | 0.00 | 91 | 1012.1 |
| 20260901024453 | 59 | 254 | 5.0 | 6.0 | 0.00 | 0.07 | 0.00 | 92 | 1014.1 |
| 20260901023954 | 59 | 260 | 5.0 | 7.0 | 0.00 | 0.07 | 0.00 | 92 | 1014.3 |
| 20260901023505 | 60 | 252 | 6.0 | 7.0 | 0.00 | 0.06 | 0.00 | 91 | 1012.1 |
| 20260901023005 | 60 | 252 | 5.0 | 7.0 | 0.00 | 0.06 | 0.00 | 91 | 1012.0 |
| 20260901022954 | 60 | 245 | 5.0 | 7.0 | 0.00 | 0.07 | 0.00 | 92 | 1014.0 |
| 20260901022505 | 60 | 256 | 5.0 | 7.0 | 0.00 | 0.06 | 0.00 | 91 | 1012.0 |
| 20260901022454 | 60 | 238 | 4.0 | 7.0 | 0.00 | 0.07 | 0.00 | 92 | 1014.1 |
| 20260901022005 | 60 | 240 | 4.0 | 4.0 | 0.00 | 0.06 | 0.00 | 91 | 1011.9 |
| 20260901021954 | 60 | 249 | 4.0 | 5.0 | 0.00 | 0.07 | 0.00 | 92 | 1014.0 |
| 20260901021504 | 60 | 266 | 4.0 | 4.0 | 0.00 | 0.06 | 0.00 | 91 | 1011.9 |
| 20260901021454 | 60 | 254 | 4.0 | 4.0 | 0.00 | 0.07 | 0.00 | 92 | 1014.0 |
| 20260901020955 | 60 | 245 | 4.0 | 5.0 | 0.00 | 0.07 | 0.00 | 92 | 1013.9 |
| 20260901020505 | 61 | 289 | 4.0 | 5.0 | 0.00 | 0.06 | 0.00 | 92 | 1012.0 |
| 20260901020005 | 61 | 235 | 4.0 | 6.0 | 0.00 | 0.06 | 0.00 | 92 | 1012.1 |
| 20260901015504 | 61 | 236 | 5.0 | 8.0 | 0.00 | 0.06 | 0.00 | 92 | 1011.9 |
| 20260901015005 | 61 | 253 | 6.0 | 8.0 | 0.00 | 0.06 | 0.00 | 92 | 1012.1 |
| 20260901014505 | 61 | 275 | 6.0 | 7.0 | 0.00 | 0.06 | 0.00 | 92 | 1012.1 |
| 20260901014454 | 61 | 278 | 6.0 | 8.0 | 0.00 | 0.07 | 0.00 | 93 | 1014.1 |
| 20260901014005 | 61 | 288 | 5.0 | 7.0 | 0.00 | 0.06 | 0.00 | 92 | 1012.1 |
| 20260901013954 | 61 | 253 | 5.0 | 8.0 | 0.00 | 0.07 | 0.00 | 93 | 1014.0 |
| 20260901013454 | 61 | 237 | 4.0 | 5.0 | 0.00 | 0.07 | 0.00 | 92 | 1013.9 |
| 20260901013005 | 61 | 266 | 4.0 | 5.0 | 0.00 | 0.06 | 0.00 | 91 | 1011.9 |
| 20260901012953 | 61 | 255 | 4.0 | 5.0 | 0.00 | 0.07 | 0.00 | 92 | 1014.1 |
| 20260901012505 | 61 | 265 | 4.0 | 5.0 | 0.00 | 0.06 | 0.00 | 92 | 1012.0 |
| 20260901012005 | 61 | 258 | 5.0 | 7.0 | 0.00 | 0.06 | 0.00 | 92 | 1011.9 |
| 20260901011954 | 61 | 242 | 5.0 | 7.0 | 0.00 | 0.07 | 0.00 | 92 | 1014.0 |
| 20260901011505 | 61 | 245 | 5.0 | 7.0 | 0.00 | 0.06 | 0.00 | 92 | 1011.8 |
| 20260901010505 | 61 | 250 | 5.0 | 7.0 | 0.00 | 0.06 | 0.00 | 93 | 1011.9 |
| 20260901010005 | 62 | 263 | 6.0 | 7.0 | 0.00 | 0.06 | 0.00 | 93 | 1012.1 |
| 20260901005505 | 62 | 270 | 6.0 | 9.0 | 0.00 | 0.06 | 0.00 | 93 | 1012.0 |
| 20260901005454 | 61 | 245 | 7.0 | 9.0 | 0.00 | 0.07 | 0.00 | 94 | 1014.0 |
| 20260901005005 | 62 | 263 | 6.0 | 9.0 | 0.00 | 0.06 | 0.00 | 94 | 1012.1 |
| 20260901004953 | 61 | 245 | 6.0 | 9.0 | 0.00 | 0.07 | 0.00 | 94 | 1014.0 |
| 20260901004454 | 61 | 250 | 5.0 | 6.0 | 0.00 | 0.07 | 0.00 | 95 | 1013.9 |
| 20260901004004 | 61 | 238 | 4.0 | 6.0 | 0.00 | 0.06 | 0.00 | 94 | 1012.0 |
| 20260901003954 | 61 | 238 | 4.0 | 6.0 | 0.00 | 0.07 | 0.00 | 95 | 1013.9 |
| 20260901003504 | 61 | 220 | 4.0 | 6.0 | 0.00 | 0.06 | 0.00 | 94 | 1011.9 |
| 20260901003453 | 61 | 222 | 4.0 | 5.0 | 0.00 | 0.07 | 0.00 | 96 | 1013.9 |
| 20260901003004 | 61 | 221 | 4.0 | 6.0 | 0.00 | 0.06 | 0.00 | 94 | 1011.9 |
| 20260901002504 | 61 | 226 | 4.0 | 6.0 | 0.00 | 0.06 | 0.00 | 95 | 1011.9 |
| 20260901002454 | 61 | 240 | 4.0 | 5.0 | 0.00 | 0.07 | 0.00 | 96 | 1013.7 |
| 20260901002005 | 61 | 233 | 4.0 | 6.0 | 0.00 | 0.06 | 0.00 | 95 | 1011.8 |
| 20260901001954 | 61 | 257 | 4.0 | 5.0 | 0.00 | 0.07 | 0.00 | 97 | 1013.9 |
| 20260901001505 | 61 | 229 | 4.0 | 5.0 | 0.00 | 0.06 | 0.00 | 95 | 1011.9 |
| 20260901001454 | 61 | 232 | 3.0 | 4.0 | 0.00 | 0.07 | 0.00 | 97 | 1014.0 |
| 20260901001005 | 61 | 166 | 3.0 | 5.0 | 0.00 | 0.06 | 0.00 | 95 | 1011.9 |
| 20260901000505 | 61 | 171 | 2.0 | 3.0 | 0.00 | 0.06 | 0.00 | 95 | 1011.6 |
| 20260901000454 | 61 | 216 | 2.0 | 3.0 | 0.00 | 0.07 | 0.00 | 97 | 1013.5 |
| 20260831235959 | 61 | 228 | 2.0 | 4.0 | 0.00 | 0.07 | 0.00 | 97 | 1013.7 |
| 20260831235504 | 61 | 216 | 3.0 | 3.0 | 0.00 | 0.06 | 0.00 | 95 | 1011.9 |
| 20260831235454 | 61 | 229 | 2.0 | 4.0 | 0.00 | 0.07 | 0.00 | 97 | 1013.8 |
| 20260831235004 | 61 | 218 | 2.0 | 2.0 | 0.00 | 0.06 | 0.00 | 95 | 1012.0 |
| 20260831234954 | 61 | 216 | 2.0 | 2.0 | 0.00 | 0.07 | 0.00 | 99 | 1013.9 |
| 20260831234504 | 61 | 221 | 2.0 | 2.0 | 0.00 | 0.06 | 0.00 | 95 | 1012.0 |
| 20260831234454 | 61 | 212 | 1.0 | 2.0 | 0.00 | 0.07 | 0.00 | 99 | 1013.8 |
| 20260831234005 | 61 | 225 | 1.0 | 2.0 | 0.00 | 0.06 | 0.00 | 95 | 1011.8 |
| 20260831233953 | 61 | 202 | 1.0 | 2.0 | 0.00 | 0.07 | 0.00 | 98 | 1013.7 |
| 20260831233504 | 61 | 270 | 0.0 | 2.0 | 0.00 | 0.06 | 0.00 | 95 | 1012.0 |
| 20260831233454 | 61 | 212 | 1.0 | 2.0 | 0.00 | 0.07 | 0.00 | 98 | 1013.8 |
| 20260831233005 | 61 | 255 | 1.0 | 3.0 | 0.00 | 0.06 | 0.00 | 95 | 1011.8 |
| 20260831232954 | 61 | 227 | 1.0 | 3.0 | 0.00 | 0.07 | 0.00 | 98 | 1014.0 |
| 20260831232505 | 61 | 239 | 2.0 | 4.0 | 0.00 | 0.06 | 0.00 | 95 | 1011.9 |
| 20260831232454 | 61 | 231 | 2.0 | 3.0 | 0.00 | 0.07 | 0.00 | 98 | 1014.1 |
| 20260831232004 | 61 | 223 | 2.0 | 4.0 | 0.00 | 0.06 | 0.00 | 96 | 1012.1 |
| 20260831231505 | 62 | 225 | 2.0 | 3.0 | 0.00 | 0.06 | 0.00 | 96 | 1012.2 |
| 20260831231454 | 61 | 219 | 2.0 | 3.0 | 0.00 | 0.07 | 0.00 | 98 | 1014.0 |
| 20260831231004 | 62 | 231 | 2.0 | 3.0 | 0.00 | 0.06 | 0.00 | 96 | 1012.2 |
| 20260831230954 | 61 | 213 | 2.0 | 3.0 | 0.00 | 0.07 | 0.00 | 98 | 1013.9 |
| 20260831230505 | 62 | 223 | 2.0 | 2.0 | 0.00 | 0.06 | 0.00 | 96 | 1012.1 |
| 20260831230454 | 61 | 202 | 2.0 | 2.0 | 0.00 | 0.07 | 0.00 | 98 | 1014.1 |
| 20260831230005 | 62 | 216 | 2.0 | 2.0 | 0.00 | 0.06 | 0.00 | 96 | 1012.2 |
| 20260831230000 | 62 | 197 | 2.0 | 2.0 | 0.00 | 0.07 | 0.00 | 98 | 1014.3 |
| 20260831225505 | 62 | 213 | 2.0 | 2.0 | 0.00 | 0.06 | 0.00 | 96 | 1012.3 |
| 20260831225455 | 61 | 201 | 2.0 | 2.0 | 0.00 | 0.07 | 0.00 | 98 | 1014.2 |
| 20260831224953 | 61 | 217 | 2.0 | 3.0 | 0.00 | 0.07 | 0.00 | 98 | 1014.5 |
| 20260831224454 | 62 | 211 | 3.0 | 3.0 | 0.00 | 0.07 | 0.00 | 98 | 1014.2 |
| 20260831224005 | 62 | 251 | 3.0 | 4.0 | 0.00 | 0.06 | 0.00 | 96 | 1012.3 |
| 20260831223954 | 62 | 201 | 3.0 | 3.0 | 0.00 | 0.07 | 0.00 | 98 | 1014.3 |
| 20260831223454 | 62 | 219 | 3.0 | 4.0 | 0.00 | 0.07 | 0.00 | 98 | 1014.5 |
| 20260831223005 | 62 | 237 | 3.0 | 4.0 | 0.00 | 0.06 | 0.00 | 96 | 1012.2 |
| 20260831222954 | 62 | 237 | 3.0 | 4.0 | 0.00 | 0.07 | 0.00 | 98 | 1014.5 |
| 20260831222504 | 62 | 233 | 3.0 | 6.0 | 0.00 | 0.06 | 0.00 | 96 | 1012.5 |
| 20260831222454 | 62 | 247 | 3.0 | 4.0 | 0.00 | 0.07 | 0.00 | 98 | 1014.3 |
| 20260831222004 | 62 | 235 | 4.0 | 6.0 | 0.00 | 0.06 | 0.00 | 96 | 1012.4 |
| 20260831221954 | 62 | 248 | 3.0 | 4.0 | 0.00 | 0.07 | 0.00 | 98 | 1014.5 |
| 20260831221505 | 62 | 208 | 3.0 | 4.0 | 0.00 | 0.06 | 0.00 | 96 | 1012.4 |
| 20260831221454 | 62 | 239 | 3.0 | 4.0 | 0.00 | 0.07 | 0.00 | 98 | 1014.6 |
| 20260831221005 | 62 | 149 | 3.0 | 4.0 | 0.00 | 0.06 | 0.00 | 96 | 1012.5 |
| 20260831220954 | 62 | 229 | 2.0 | 4.0 | 0.00 | 0.07 | 0.00 | 98 | 1014.6 |
| 20260831220505 | 62 | 160 | 3.0 | 3.0 | 0.00 | 0.06 | 0.00 | 96 | 1012.4 |
| 20260831220454 | 62 | 213 | 2.0 | 3.0 | 0.00 | 0.07 | 0.00 | 98 | 1014.4 |
| 20260831220006 | 62 | 229 | 3.0 | 4.0 | 0.00 | 0.06 | 0.00 | 96 | 1012.4 |
| 20260831220000 | 62 | 189 | 2.0 | 3.0 | 0.00 | 0.07 | 0.00 | 98 | 1014.5 |
| 20260831215504 | 62 | 239 | 2.0 | 4.0 | 0.00 | 0.06 | 0.06 | 96 | 1012.4 |
| 20260831215454 | 62 | 208 | 2.0 | 3.0 | 0.00 | 0.07 | 0.07 | 98 | 1014.3 |
| 20260831215004 | 62 | 224 | 2.0 | 3.0 | 0.00 | 0.06 | 0.06 | 96 | 1012.3 |
| 20260831214954 | 62 | 236 | 2.0 | 2.0 | 0.00 | 0.07 | 0.07 | 98 | 1014.3 |
| 20260831214505 | 62 | 222 | 3.0 | 4.0 | 0.00 | 0.06 | 0.06 | 96 | 1012.3 |
| 20260831214454 | 62 | 217 | 2.0 | 4.0 | 0.00 | 0.07 | 0.07 | 98 | 1014.3 |
| 20260831214005 | 62 | 228 | 3.0 | 4.0 | 0.00 | 0.06 | 0.06 | 96 | 1012.2 |
| 20260831213955 | 62 | 219 | 3.0 | 4.0 | 0.00 | 0.07 | 0.07 | 98 | 1014.2 |
| 20260831213504 | 62 | 226 | 2.0 | 4.0 | 0.00 | 0.06 | 0.06 | 96 | 1012.2 |
| 20260831213005 | 62 | 222 | 2.0 | 2.0 | 0.00 | 0.06 | 0.06 | 96 | 1012.1 |
| 20260831212954 | 62 | 207 | 1.0 | 2.0 | 0.00 | 0.07 | 0.07 | 98 | 1013.8 |
| 20260831212505 | 62 | 238 | 2.0 | 3.0 | 0.00 | 0.06 | 0.06 | 96 | 1012.2 |
| 20260831212454 | 62 | 227 | 2.0 | 3.0 | 0.00 | 0.07 | 0.07 | 98 | 1014.3 |
| 20260831212005 | 62 | 255 | 2.0 | 4.0 | 0.00 | 0.06 | 0.06 | 96 | 1012.0 |
| 20260831211954 | 62 | 236 | 2.0 | 4.0 | 0.00 | 0.07 | 0.07 | 98 | 1014.2 |
| 20260831211504 | 63 | 247 | 2.0 | 4.0 | 0.00 | 0.06 | 0.06 | 95 | 1012.0 |
| 20260831211454 | 62 | 219 | 2.0 | 4.0 | 0.00 | 0.07 | 0.07 | 98 | 1013.6 |
| 20260831211004 | 63 | 247 | 2.0 | 3.0 | 0.00 | 0.06 | 0.06 | 95 | 1012.0 |
| 20260831210954 | 63 | 215 | 2.0 | 2.0 | 0.00 | 0.07 | 0.07 | 97 | 1013.8 |
| 20260831210505 | 63 | 236 | 3.0 | 3.0 | 0.00 | 0.06 | 0.06 | 95 | 1012.1 |
| 20260831210454 | 63 | 218 | 2.0 | 3.0 | 0.00 | 0.07 | 0.07 | 97 | 1014.0 |
| 20260831210005 | 63 | 238 | 3.0 | 4.0 | 0.00 | 0.06 | 0.06 | 95 | 1012.4 |
| 20260831210000 | 63 | 232 | 3.0 | 4.0 | 0.00 | 0.07 | 0.07 | 97 | 1014.4 |
| 20260831205504 | 63 | 253 | 2.0 | 4.0 | 0.00 | 0.06 | 0.06 | 95 | 1012.5 |
| 20260831205454 | 63 | 234 | 3.0 | 4.0 | 0.00 | 0.07 | 0.07 | 97 | 1014.1 |
| 20260831205005 | 63 | 236 | 1.0 | 4.0 | 0.00 | 0.06 | 0.06 | 95 | 1012.3 |
| 20260831204953 | 63 | 206 | 2.0 | 4.0 | 0.00 | 0.07 | 0.07 | 97 | 1014.3 |
| 20260831204505 | 63 | 225 | 1.0 | 2.0 | 0.00 | 0.06 | 0.06 | 95 | 1012.2 |
| 20260831204454 | 63 | 218 | 1.0 | 2.0 | 0.00 | 0.07 | 0.07 | 97 | 1014.1 |
| 20260831204004 | 63 | 225 | 1.0 | 2.0 | 0.00 | 0.06 | 0.06 | 95 | 1012.1 |
| 20260831203954 | 63 | 220 | 1.0 | 2.0 | 0.00 | 0.07 | 0.07 | 97 | 1014.0 |
| 20260831203504 | 63 | 225 | 0.0 | 1.0 | 0.00 | 0.06 | 0.06 | 94 | 1012.0 |
| 20260831203453 | 63 | 211 | 1.0 | 2.0 | 0.00 | 0.07 | 0.07 | 97 | 1014.1 |
| 20260831203005 | 63 | 239 | 0.0 | 1.0 | 0.00 | 0.06 | 0.06 | 94 | 1011.9 |
| 20260831202954 | 63 | 220 | 1.0 | 2.0 | 0.00 | 0.07 | 0.07 | 97 | 1013.9 |
| 20260831202505 | 63 | 232 | 0.0 | 2.0 | 0.00 | 0.06 | 0.06 | 94 | 1012.0 |
| 20260831202454 | 63 | 181 | 1.0 | 2.0 | 0.00 | 0.07 | 0.07 | 97 | 1013.9 |
| 20260831202005 | 63 | 225 | 0.0 | 2.0 | 0.00 | 0.06 | 0.06 | 94 | 1012.2 |
| 20260831201954 | 63 | 177 | 1.0 | 2.0 | 0.00 | 0.07 | 0.07 | 97 | 1014.2 |
| 20260831201504 | 63 | 225 | 0.0 | 2.0 | 0.00 | 0.06 | 0.06 | 94 | 1012.1 |
| 20260831201454 | 63 | 173 | 0.0 | 2.0 | 0.00 | 0.07 | 0.07 | 97 | 1014.1 |
| 20260831201005 | 63 | 0 | 0.0 | 0.0 | 0.00 | 0.06 | 0.06 | 94 | 1012.2 |
| 20260831200954 | 63 | 199 | 1.0 | 2.0 | 0.00 | 0.07 | 0.07 | 96 | 1013.9 |
| 20260831200505 | 63 | 0 | 0.0 | 0.0 | 0.00 | 0.06 | 0.06 | 94 | 1012.1 |
| 20260831200453 | 63 | 204 | 2.0 | 2.0 | 0.00 | 0.07 | 0.07 | 96 | 1014.0 |
| 20260831200005 | 63 | 0 | 0.0 | 0.0 | 0.00 | 0.06 | 0.06 | 94 | 1012.2 |
| 20260831200000 | 63 | 209 | 1.0 | 2.0 | 0.00 | 0.07 | 0.07 | 96 | 1013.9 |
| 20260831195505 | 63 | 0 | 0.0 | 0.0 | 0.00 | 0.06 | 0.06 | 94 | 1012.1 |
| 20260831195454 | 63 | 204 | 1.0 | 2.0 | 0.00 | 0.07 | 0.07 | 96 | 1014.0 |
| 20260831195004 | 63 | 0 | 0.0 | 0.0 | 0.00 | 0.06 | 0.06 | 93 | 1012.0 |
| 20260831194504 | 63 | 0 | 0.0 | 0.0 | 0.00 | 0.06 | 0.06 | 93 | 1012.1 |
| 20260831194454 | 63 | 223 | 1.0 | 2.0 | 0.00 | 0.07 | 0.07 | 95 | 1014.0 |
| 20260831193954 | 63 | 205 | 0.0 | 2.0 | 0.00 | 0.07 | 0.07 | 95 | 1013.9 |
| 20260831193504 | 64 | 0 | 0.0 | 0.0 | 0.00 | 0.06 | 0.06 | 93 | 1012.2 |
| 20260831193454 | 63 | 197 | 1.0 | 2.0 | 0.00 | 0.07 | 0.07 | 95 | 1014.0 |
| 20260831193005 | 64 | 0 | 0.0 | 0.0 | 0.00 | 0.06 | 0.06 | 93 | 1012.1 |
| 20260831192954 | 63 | 194 | 2.0 | 4.0 | 0.00 | 0.07 | 0.07 | 95 | 1014.0 |
| 20260831192505 | 64 | 225 | 0.0 | 1.0 | 0.00 | 0.06 | 0.06 | 93 | 1012.1 |
| 20260831192454 | 63 | 185 | 2.0 | 4.0 | 0.00 | 0.07 | 0.07 | 94 | 1014.1 |
| 20260831192004 | 64 | 225 | 0.0 | 1.0 | 0.00 | 0.06 | 0.06 | 92 | 1012.1 |
| 20260831191954 | 63 | 175 | 1.0 | 3.0 | 0.00 | 0.07 | 0.07 | 94 | 1014.2 |
| 20260831191504 | 64 | 225 | 0.0 | 1.0 | 0.00 | 0.06 | 0.06 | 92 | 1012.1 |
| 20260831191453 | 64 | 202 | 1.0 | 2.0 | 0.00 | 0.07 | 0.07 | 94 | 1013.9 |
| 20260831190954 | 64 | 206 | 1.0 | 2.0 | 0.00 | 0.07 | 0.07 | 94 | 1014.0 |
| 20260831190454 | 64 | 190 | 1.0 | 2.0 | 0.00 | 0.07 | 0.07 | 93 | 1013.9 |
| 20260831190006 | 64 | 0 | 0.0 | 0.0 | 0.00 | 0.06 | 0.06 | 92 | 1012.1 |
| 20260831190000 | 64 | 204 | 0.0 | 2.0 | 0.00 | 0.07 | 0.07 | 93 | 1013.8 |
| 20260831185504 | 64 | 225 | 0.0 | 2.0 | 0.00 | 0.06 | 0.06 | 92 | 1012.1 |
| 20260831185454 | 64 | 224 | 1.0 | 2.0 | 0.00 | 0.07 | 0.07 | 93 | 1014.0 |
| 20260831185004 | 64 | 236 | 1.0 | 2.0 | 0.00 | 0.06 | 0.06 | 92 | 1012.1 |
| 20260831184505 | 65 | 250 | 1.0 | 2.0 | 0.00 | 0.06 | 0.06 | 92 | 1012.0 |
| 20260831184454 | 64 | 261 | 2.0 | 2.0 | 0.00 | 0.07 | 0.07 | 94 | 1014.0 |
| 20260831184005 | 65 | 261 | 1.0 | 2.0 | 0.00 | 0.06 | 0.06 | 92 | 1012.0 |
| 20260831183954 | 65 | 257 | 2.0 | 2.0 | 0.00 | 0.07 | 0.07 | 94 | 1014.0 |
| 20260831182954 | 65 | 174 | 2.0 | 3.0 | 0.00 | 0.07 | 0.07 | 94 | 1014.0 |
| 20260831182454 | 66 | 181 | 3.0 | 4.0 | 0.00 | 0.07 | 0.07 | 94 | 1014.0 |
| 20260831181954 | 66 | 181 | 4.0 | 4.0 | 0.00 | 0.07 | 0.07 | 93 | 1013.8 |
| 20260831181504 | 66 | 181 | 1.0 | 4.0 | 0.00 | 0.06 | 0.06 | 92 | 1011.8 |
| 20260831181005 | 66 | 181 | 2.0 | 4.0 | 0.00 | 0.06 | 0.06 | 90 | 1011.7 |
| 20260831180954 | 66 | 184 | 3.0 | 4.0 | 0.00 | 0.07 | 0.07 | 91 | 1013.7 |
| 20260831180504 | 67 | 181 | 2.0 | 4.0 | 0.00 | 0.06 | 0.06 | 90 | 1011.6 |
| 20260831180454 | 66 | 181 | 3.0 | 4.0 | 0.00 | 0.07 | 0.07 | 91 | 1013.5 |
| 20260831175505 | 67 | 0 | 0.0 | 0.0 | 0.00 | 0.06 | 0.06 | 90 | 1011.7 |
| 20260831175454 | 67 | 176 | 2.0 | 3.0 | 0.00 | 0.07 | 0.07 | 91 | 1013.3 |
| 20260831175005 | 67 | 0 | 0.0 | 0.0 | 0.00 | 0.06 | 0.06 | 89 | 1011.4 |
| 20260831174954 | 67 | 174 | 2.0 | 3.0 | 0.00 | 0.07 | 0.07 | 90 | 1013.5 |
| 20260831174504 | 67 | 0 | 0.0 | 0.0 | 0.00 | 0.06 | 0.06 | 89 | 1011.5 |
| 20260831174454 | 67 | 177 | 1.0 | 2.0 | 0.00 | 0.07 | 0.07 | 90 | 1013.3 |
| 20260831173954 | 67 | 182 | 1.0 | 2.0 | 0.00 | 0.07 | 0.07 | 90 | 1013.6 |
| 20260831173505 | 67 | 0 | 0.0 | 0.0 | 0.00 | 0.06 | 0.06 | 89 | 1011.5 |
| 20260831172954 | 68 | 204 | 1.0 | 4.0 | 0.00 | 0.07 | 0.07 | 89 | 1013.5 |
| 20260831172453 | 68 | 221 | 2.0 | 5.0 | 0.00 | 0.07 | 0.07 | 89 | 1013.4 |
| 20260831172005 | 68 | 245 | 3.0 | 5.0 | 0.00 | 0.06 | 0.06 | 87 | 1011.5 |
| 20260831171954 | 68 | 229 | 3.0 | 5.0 | 0.00 | 0.07 | 0.07 | 87 | 1013.4 |
| 20260831171504 | 68 | 243 | 3.0 | 5.0 | 0.00 | 0.06 | 0.06 | 87 | 1011.5 |
| 20260831171453 | 68 | 220 | 3.0 | 5.0 | 0.00 | 0.07 | 0.07 | 87 | 1013.4 |
| 20260831171004 | 68 | 259 | 3.0 | 5.0 | 0.00 | 0.06 | 0.06 | 87 | 1011.4 |
| 20260831171001 | 69 | 242 | 3.0 | 5.0 | 0.00 | 0.07 | 0.07 | 86 | 1013.3 |
| 20260831170000 | 69 | 223 | 3.0 | 4.0 | 0.00 | 0.07 | 0.07 | 86 | 1013.2 |
| 20260831165504 | 69 | 203 | 2.0 | 4.0 | 0.00 | 0.06 | 0.06 | 86 | 1011.2 |
| 20260831165005 | 69 | 223 | 2.0 | 4.0 | 0.00 | 0.06 | 0.06 | 86 | 1011.2 |
| 20260831164954 | 69 | 196 | 3.0 | 4.0 | 0.00 | 0.07 | 0.07 | 86 | 1013.3 |
| 20260831164505 | 69 | 240 | 3.0 | 5.0 | 0.00 | 0.06 | 0.06 | 86 | 1011.3 |
| 20260831164454 | 69 | 212 | 3.0 | 5.0 | 0.00 | 0.07 | 0.07 | 86 | 1013.2 |
| 20260831163504 | 69 | 236 | 6.0 | 8.0 | 0.00 | 0.06 | 0.06 | 86 | 1011.4 |
| 20260831163453 | 69 | 236 | 6.0 | 9.0 | 0.00 | 0.07 | 0.07 | 85 | 1013.4 |
| 20260831163005 | 69 | 242 | 5.0 | 8.0 | 0.00 | 0.06 | 0.06 | 87 | 1011.2 |
| 20260831162504 | 69 | 256 | 5.0 | 7.0 | 0.00 | 0.06 | 0.06 | 87 | 1011.3 |
| 20260831162454 | 69 | 231 | 5.0 | 8.0 | 0.00 | 0.07 | 0.07 | 86 | 1013.2 |
| 20260831162004 | 69 | 245 | 5.0 | 8.0 | 0.00 | 0.06 | 0.06 | 87 | 1011.5 |
| 20260831161953 | 69 | 259 | 5.0 | 8.0 | 0.00 | 0.07 | 0.07 | 86 | 1013.2 |
| 20260831161504 | 69 | 245 | 4.0 | 8.0 | 0.00 | 0.06 | 0.06 | 87 | 1011.4 |
| 20260831161454 | 69 | 280 | 5.0 | 8.0 | 0.00 | 0.07 | 0.07 | 86 | 1013.3 |
| 20260831161005 | 69 | 230 | 5.0 | 5.0 | 0.00 | 0.06 | 0.06 | 87 | 1011.6 |
| 20260831160954 | 69 | 233 | 5.0 | 7.0 | 0.00 | 0.07 | 0.07 | 86 | 1013.4 |
| 20260831160504 | 69 | 229 | 5.0 | 8.0 | 0.00 | 0.06 | 0.06 | 88 | 1011.7 |
| 20260831160454 | 69 | 206 | 6.0 | 8.0 | 0.00 | 0.07 | 0.07 | 86 | 1013.3 |
| 20260831160004 | 69 | 233 | 5.0 | 8.0 | 0.00 | 0.06 | 0.06 | 88 | 1011.5 |
| 20260831155504 | 69 | 237 | 5.0 | 8.0 | 0.00 | 0.06 | 0.06 | 89 | 1011.6 |
| 20260831155005 | 69 | 239 | 5.0 | 8.0 | 0.00 | 0.06 | 0.06 | 90 | 1011.6 |
| 20260831154954 | 70 | 239 | 5.0 | 8.0 | 0.00 | 0.07 | 0.07 | 89 | 1013.4 |
| 20260831154504 | 69 | 237 | 3.0 | 4.0 | 0.00 | 0.06 | 0.06 | 91 | 1011.6 |
| 20260831154454 | 69 | 236 | 3.0 | 5.0 | 0.00 | 0.07 | 0.07 | 90 | 1013.4 |
| 20260831154004 | 69 | 229 | 2.0 | 3.0 | 0.00 | 0.06 | 0.06 | 91 | 1011.6 |
| 20260831153954 | 69 | 198 | 2.0 | 3.0 | 0.00 | 0.07 | 0.07 | 90 | 1013.2 |
| 20260831153504 | 69 | 230 | 2.0 | 4.0 | 0.00 | 0.06 | 0.06 | 91 | 1011.6 |
| 20260831153454 | 69 | 215 | 3.0 | 5.0 | 0.00 | 0.07 | 0.07 | 90 | 1013.5 |
| 20260831153005 | 69 | 232 | 3.0 | 4.0 | 0.00 | 0.06 | 0.06 | 91 | 1011.7 |
| 20260831152954 | 69 | 220 | 3.0 | 5.0 | 0.01 | 0.07 | 0.07 | 89 | 1013.5 |
| 20260831152504 | 69 | 233 | 3.0 | 5.0 | 0.00 | 0.06 | 0.06 | 91 | 1011.6 |
| 20260831152454 | 69 | 212 | 3.0 | 4.0 | 0.01 | 0.07 | 0.07 | 90 | 1013.4 |
| 20260831152004 | 69 | 246 | 4.0 | 8.0 | 0.00 | 0.06 | 0.06 | 92 | 1011.7 |
| 20260831151954 | 69 | 234 | 5.0 | 8.0 | 0.01 | 0.07 | 0.07 | 90 | 1013.4 |
| 20260831151504 | 69 | 244 | 5.0 | 8.0 | 0.00 | 0.06 | 0.06 | 93 | 1011.7 |
| 20260831151453 | 69 | 257 | 5.0 | 8.0 | 0.01 | 0.07 | 0.07 | 92 | 1013.5 |
| 20260831151005 | 69 | 237 | 5.0 | 7.0 | 0.00 | 0.06 | 0.06 | 93 | 1011.7 |
| 20260831150454 | 69 | 208 | 5.0 | 6.0 | 0.01 | 0.07 | 0.07 | 94 | 1013.7 |
| 20260831150005 | 68 | 254 | 4.0 | 7.0 | 0.00 | 0.06 | 0.06 | 94 | 1011.5 |
| 20260831145454 | 68 | 205 | 3.0 | 5.0 | 0.01 | 0.07 | 0.07 | 95 | 1013.6 |
| 20260831145004 | 68 | 220 | 3.0 | 4.0 | 0.00 | 0.06 | 0.06 | 94 | 1011.5 |
| 20260831144954 | 68 | 203 | 3.0 | 4.0 | 0.01 | 0.07 | 0.07 | 95 | 1013.3 |
| 20260831144504 | 68 | 204 | 4.0 | 7.0 | 0.00 | 0.06 | 0.06 | 95 | 1011.5 |
| 20260831144453 | 68 | 195 | 4.0 | 8.0 | 0.01 | 0.07 | 0.07 | 97 | 1013.5 |
| 20260831143954 | 68 | 200 | 4.0 | 8.0 | 0.01 | 0.07 | 0.07 | 97 | 1013.5 |
| 20260831143504 | 68 | 227 | 3.0 | 4.0 | 0.00 | 0.06 | 0.06 | 95 | 1011.6 |
| 20260831143004 | 67 | 220 | 2.0 | 4.0 | 0.00 | 0.06 | 0.06 | 95 | 1011.5 |
| 20260831142954 | 67 | 222 | 3.0 | 4.0 | 0.00 | 0.06 | 0.06 | 97 | 1013.4 |
| 20260831142504 | 67 | 185 | 3.0 | 7.0 | 0.00 | 0.06 | 0.06 | 95 | 1011.5 |
| 20260831142453 | 67 | 210 | 4.0 | 8.0 | 0.00 | 0.06 | 0.06 | 97 | 1013.2 |
| 20260831142005 | 67 | 181 | 5.0 | 7.0 | 0.00 | 0.06 | 0.06 | 95 | 1011.5 |
| 20260831141954 | 67 | 188 | 5.0 | 8.0 | 0.00 | 0.06 | 0.06 | 97 | 1013.3 |
| 20260831141504 | 67 | 181 | 5.0 | 7.0 | 0.00 | 0.06 | 0.06 | 95 | 1011.3 |
| 20260831141454 | 67 | 181 | 5.0 | 7.0 | 0.00 | 0.06 | 0.06 | 97 | 1013.3 |
| 20260831141004 | 67 | 162 | 4.0 | 7.0 | 0.00 | 0.06 | 0.06 | 95 | 1011.3 |
| 20260831140454 | 67 | 167 | 4.0 | 6.0 | 0.00 | 0.06 | 0.06 | 96 | 1013.3 |
| 20260831140000 | 67 | 168 | 4.0 | 6.0 | 0.00 | 0.06 | 0.06 | 96 | 1013.3 |
| 20260831135504 | 67 | 174 | 3.0 | 4.0 | 0.01 | 0.06 | 0.06 | 94 | 1011.6 |
| 20260831134954 | 67 | 156 | 3.0 | 4.0 | 0.01 | 0.06 | 0.06 | 96 | 1013.5 |
| 20260831134505 | 67 | 187 | 2.0 | 4.0 | 0.01 | 0.06 | 0.06 | 94 | 1011.6 |
| 20260831134454 | 67 | 164 | 3.0 | 4.0 | 0.01 | 0.06 | 0.06 | 95 | 1013.6 |
| 20260831134004 | 67 | 176 | 2.0 | 4.0 | 0.02 | 0.06 | 0.06 | 94 | 1011.6 |
| 20260831133504 | 67 | 158 | 1.0 | 4.0 | 0.02 | 0.06 | 0.06 | 94 | 1011.7 |
| 20260831133454 | 67 | 161 | 3.0 | 4.0 | 0.04 | 0.06 | 0.06 | 95 | 1013.7 |
| 20260831133004 | 67 | 0 | 0.0 | 0.0 | 0.04 | 0.06 | 0.06 | 93 | 1011.7 |
| 20260831132505 | 67 | 0 | 0.0 | 0.0 | 0.04 | 0.06 | 0.06 | 93 | 1011.9 |
| 20260831132454 | 67 | 199 | 2.0 | 3.0 | 0.04 | 0.06 | 0.06 | 95 | 1013.7 |
| 20260831132004 | 67 | 0 | 0.0 | 0.0 | 0.04 | 0.06 | 0.06 | 93 | 1012.0 |
| 20260831130954 | 67 | 232 | 2.0 | 4.0 | 0.05 | 0.06 | 0.06 | 94 | 1013.8 |
| 20260831130505 | 67 | 248 | 3.0 | 4.0 | 0.05 | 0.06 | 0.06 | 92 | 1011.9 |
| 20260831130004 | 67 | 259 | 3.0 | 4.0 | 0.05 | 0.06 | 0.06 | 91 | 1011.8 |
| 20260831130000 | 67 | 242 | 3.0 | 5.0 | 0.05 | 0.06 | 0.06 | 93 | 1013.7 |
| 20260831125504 | 67 | 266 | 5.0 | 6.0 | 0.04 | 0.05 | 0.05 | 91 | 1012.0 |
| 20260831125454 | 67 | 265 | 5.0 | 7.0 | 0.04 | 0.05 | 0.05 | 92 | 1014.1 |
| 20260831125004 | 67 | 257 | 6.0 | 8.0 | 0.04 | 0.05 | 0.05 | 90 | 1012.2 |
| 20260831124954 | 67 | 275 | 7.0 | 9.0 | 0.04 | 0.05 | 0.05 | 91 | 1014.0 |
| 20260831124505 | 67 | 262 | 8.0 | 11.0 | 0.02 | 0.04 | 0.04 | 89 | 1012.4 |
| 20260831124004 | 67 | 271 | 9.0 | 11.0 | 0.02 | 0.04 | 0.04 | 89 | 1012.2 |
| 20260831123954 | 67 | 261 | 9.0 | 11.0 | 0.02 | 0.04 | 0.04 | 89 | 1014.1 |
| 20260831123454 | 68 | 280 | 9.0 | 11.0 | 0.02 | 0.02 | 0.02 | 89 | 1014.1 |
| 20260831123004 | 68 | 249 | 8.0 | 12.0 | 0.02 | 0.02 | 0.02 | 88 | 1012.3 |
| 20260831122954 | 68 | 272 | 9.0 | 12.0 | 0.02 | 0.02 | 0.02 | 88 | 1014.1 |
| 20260831122505 | 68 | 237 | 7.0 | 12.0 | 0.02 | 0.02 | 0.02 | 88 | 1012.4 |
| 20260831122454 | 68 | 281 | 7.0 | 12.0 | 0.02 | 0.02 | 0.02 | 88 | 1014.1 |
| 20260831122004 | 68 | 234 | 6.0 | 8.0 | 0.02 | 0.02 | 0.02 | 87 | 1012.2 |
| 20260831121954 | 68 | 273 | 6.0 | 8.0 | 0.02 | 0.02 | 0.02 | 88 | 1014.0 |
| 20260831121504 | 69 | 272 | 5.0 | 6.0 | 0.02 | 0.02 | 0.02 | 87 | 1012.2 |
| 20260831121454 | 69 | 245 | 5.0 | 6.0 | 0.02 | 0.02 | 0.02 | 88 | 1014.2 |
| 20260831121004 | 69 | 286 | 4.0 | 5.0 | 0.02 | 0.02 | 0.02 | 87 | 1012.2 |
| 20260831120954 | 69 | 265 | 4.0 | 5.0 | 0.01 | 0.01 | 0.01 | 88 | 1014.0 |
| 20260831120504 | 69 | 240 | 2.0 | 4.0 | 0.01 | 0.01 | 0.01 | 86 | 1012.2 |
| 20260831120453 | 69 | 256 | 2.0 | 4.0 | 0.01 | 0.01 | 0.01 | 87 | 1014.1 |
| 20260831120000 | 69 | 192 | 1.0 | 3.0 | 0.01 | 0.01 | 0.01 | 86 | 1014.0 |
| 20260831115504 | 69 | 223 | 1.0 | 3.0 | 0.01 | 0.01 | 0.01 | 84 | 1012.0 |
| 20260831115453 | 69 | 207 | 2.0 | 3.0 | 0.01 | 0.01 | 0.01 | 85 | 1013.9 |